Springfield, CO

2:30 AM MDT on October 18, 2017 (GMT -0600)
Springfield

Weather History for KSPD - November, 2012

Change the Weather History Date:

Saturday, November 24, 2012

  Actual Average Record
Temperature  
Mean Temperature 49 °F -  
Max Temperature 75 °F 53 °F 75 °F (2012)
Min Temperature 23 °F 23 °F 8 °F (2003)
Degree Days  
Heating Degree Days 16 27  
Month to date heating degree days 393 530  
Since 1 July heating degree days 840 975  
Cooling Degree Days 0 0  
Month to date cooling degree days 0 0  
Year to date cooling degree days 1422 1028  
Moisture  
Dew Point 11 °F    
Average Humidity 33    
Maximum Humidity 60    
Minimum Humidity 6    
Precipitation  
Precipitation 0.00 in 0.02 in 0.09 in (2013)
Month to date precipitation 0.00  
Year to date precipitation 8.07  
Sea Level Pressure  
Sea Level Pressure 29.97 in    
Wind  
Wind Speed 6 mph (WNW)    
Max Wind Speed 15 mph    
Max Gust Speed 16 mph    
T = Trace of Precipitation, MM = Missing Value Source: NWS Daily Summary

Daily Weather History Graph

Daily Weather History Graph

Search for Another Location

Airport or City:

Trip Planner

Search our weather history database for the weather conditions in past years. The results will help you decide how hot, cold, wet, or windy it might be!

Date:

Astronomy

Nov. 24, 2012 Rise Set
Actual Time 6:39 AM MST 4:34 PM MST
Civil Twilight 6:11 AM MST 5:03 PM MST
Nautical Twilight 5:39 AM MST 5:35 PM MST
Astronomical Twilight 5:07 AM MST 6:06 PM MST
Moon 2:17 PM MST (11/24) 3:02 AM MST (11/24)
Length of Visible Light 10h 52m
Length of Day
9h 55m
Waxing Gibbous, 87% of the Moon is Illuminated
Nov 24
Waxing Gibbous
Nov 28
Full
Dec 6
Last Quarter
Dec 13
New
Dec 19
First Quarter

Hourly Weather History & Observations

Time (MST) Temp. Windchill Dew Point Humidity Pressure Visibility Wind Dir Wind Speed Gust Speed Precip Events Conditions
1:56 AM 26.1 °F 17.6 °F 12.9 °F 58% 30.21 in - WNW 8.1 mph - N/A   Unknown
2:56 AM 24.1 °F 16.0 °F 12.9 °F 62% 30.17 in - SW 6.9 mph - N/A   Unknown
3:56 AM 28.0 °F - 14.0 °F 56% 30.14 in - Calm Calm - N/A   Unknown
4:56 AM 32.0 °F 25.6 °F 15.1 °F 50% 30.14 in - WNW 6.9 mph - N/A   Unknown
5:56 AM 33.1 °F 26.9 °F 16.0 °F 50% 30.13 in - NW 6.9 mph - N/A   Unknown
6:56 AM 32.0 °F - 15.1 °F 50% 30.14 in - Calm Calm - N/A   Unknown
7:56 AM 46.9 °F - 18.0 °F 32% 30.08 in - West 5.8 mph - N/A   Unknown
8:56 AM 57.9 °F - 19.9 °F 23% 30.05 in - WNW 6.9 mph - N/A   Unknown
9:56 AM 64.9 °F - 16.0 °F 15% 30.02 in - WSW 5.8 mph - N/A   Unknown
10:56 AM 69.1 °F - 12.9 °F 11% 29.97 in - SW 5.8 mph - N/A   Unknown
11:56 AM 71.1 °F - 10.9 °F 10% 29.94 in - Variable 6.9 mph - N/A   Unknown
12:56 PM 71.1 °F - 9.0 °F 9% 29.90 in - Variable 4.6 mph - N/A   Unknown
1:56 PM 73.9 °F - 3.9 °F 7% 29.87 in - NW 5.8 mph - N/A   Unknown
2:56 PM 73.0 °F - 3.9 °F 7% 29.86 in - WNW 5.8 mph - N/A   Unknown
3:56 PM 69.1 °F - 8.1 °F 9% 29.85 in - NW 4.6 mph - N/A   Unknown
4:56 PM 55.9 °F - 12.0 °F 18% 29.88 in - WSW 8.1 mph - N/A   Unknown
5:56 PM 48.9 °F - 10.9 °F 22% 29.90 in - WNW 4.6 mph - N/A   Unknown
6:56 PM 39.9 °F 33.9 °F 10.9 °F 31% 29.93 in - NW 9.2 mph - N/A   Unknown
7:56 PM 37.9 °F 33.5 °F 10.0 °F 32% 29.88 in - NW 5.8 mph - N/A   Unknown
8:56 PM 37.0 °F 30.4 °F 9.0 °F 31% 29.85 in - NW 9.2 mph - N/A   Unknown
9:56 PM 44.1 °F 39.5 °F 7.0 °F 22% 29.82 in - NW 8.1 mph - N/A   Unknown
10:56 PM 39.0 °F 34.0 °F 7.0 °F 27% 29.83 in - NW 6.9 mph - N/A   Unknown
11:56 PM 39.0 °F 31.0 °F 8.1 °F 28% 29.83 in - NW 13.8 mph - N/A   Unknown